This is the latest recevied weather packets stored in our database for station/object VE3TEJ. If no packets are shown the sender has not sent any weather packets the latest 10 day(s).
| Time | Temp. | Humidity | Pressure | Rain* | Wind** | Luminosity | Snow |
|---|---|---|---|---|---|---|---|
| 1788620987 | 22.78° C | 62% | 1020.9 hPa | 0 mm | - | - | - |
| 1788620711 | 22.78° C | 62% | 1020.9 hPa | 0 mm | - | - | - |
| 1788620386 | 22.78° C | 63% | 1020.7 hPa | 0 mm | - | - | - |
| 1788620087 | 22.22° C | 64% | 1020.7 hPa | 0 mm | - | - | - |
| 1788619786 | 22.78° C | 63% | 1020.9 hPa | 0 mm | - | - | - |
| 1788619486 | 22.78° C | 63% | 1020.7 hPa | 0 mm | - | - | - |
| 1788619186 | 22.78° C | 63% | 1020.6 hPa | 0 mm | - | - | - |
| 1788618885 | 22.22° C | 65% | 1020.7 hPa | 0 mm | - | - | - |
| 1788618587 | 22.22° C | 66% | 1020.5 hPa | 0 mm | - | - | - |
| 1788618287 | 22.22° C | 66% | 1020.7 hPa | 0 mm | - | - | - |
| 1788617986 | 21.67° C | 65% | 1020.6 hPa | 0 mm | - | - | - |
| 1788617686 | 21.67° C | 67% | 1020.5 hPa | 0 mm | - | - | - |
| 1788617386 | 21.67° C | 67% | 1020.7 hPa | 0 mm | - | - | - |
| 1788617085 | 21.67° C | 68% | 1020.8 hPa | 0 mm | - | - | - |
| 1788616787 | 21.67° C | 66% | 1020.7 hPa | 0 mm | - | - | - |
| 1788616487 | 21.67° C | 68% | 1020.8 hPa | 0 mm | - | - | - |
| 1788616186 | 21.67° C | 69% | 1020.7 hPa | 0 mm | - | - | - |
| 1788615886 | 21.11° C | 68% | 1020.8 hPa | 0 mm | - | - | - |
| 1788615586 | 21.11° C | 70% | 1020.7 hPa | 0 mm | - | - | - |
| 1788615285 | 20.56° C | 70% | 1020.7 hPa | 0 mm | - | - | - |
| 1788614985 | 20° C | 72% | 1020.5 hPa | 0 mm | - | - | - |
| 1788614687 | 20° C | 75% | 1020.6 hPa | 0 mm | - | - | - |
| 1788614385 | 20° C | 74% | 1020.5 hPa | 0 mm | - | - | - |
| 1788614087 | 20° C | 74% | 1020.6 hPa | 0 mm | - | - | - |
| 1788613787 | 19.44° C | 75% | 1020.6 hPa | 0 mm | - | - | - |
* Rain latest hour (hover to see other rain measurements)
** Current wind speed in m/s (hover to see current wind gust speed)